Location: Newark
(34.0131°N, 4.3314°W)
Time: 09:29:53
(UTC+00:00)

A-11 Canister half - Pass Details

Date: 30 October 2019
Orbit: 1514 x 1686 km, 47.2° (Epoch: 13 November)

Event Time Altitude Azimuth Distance (km) Brightness Sun altitude
Rises 23:30:16 0° 245° (WSW) 4,932 - -68.7°
Reaches altitude 10° 23:33:29 10° 248° (WSW) 3,943 - -69.0°
Maximum altitude 23:43:35 66° 330° (NNW) 1,787 - -69.5°
Drops below altitude 10° 23:53:29 10° 52° (NE) 3,866 - -69.9°
Sets 23:56:37 0° 55° (NE) 4,831 - -69.9°
